Hourly Weather Roundup
Issued by NWS Central Illinois

Home | Current Version | Previous Version | Text Only | Print | Product List | Glossary On
Versions: 1 2 3 4 5 6 7 8 9 10 11 12 13 14 15 16 17 18 19 20 21 22 23 24 25 26 27 28 29 30 31 32 33 34 35 36 37 38 39 40 41 42 43 44 45 46 47 48 49 50
000
NZUS43 KILX 020710
HWRILX

AREA WEATHER ROUNDUP
NATIONAL WEATHER SERVICE, LINCOLN IL
200 AM CDT SUN AUG 02 2015


CITY           SKY/WX    TMP DP  RH WIND       PRES   REMARKS
BLOOMINGTON    CLEAR     71  65  81 SW9       29.96F
CHAMPAIGN      CLEAR     65  61  87 SW6       29.97S
DANVILLE       PTCLDY    62  61  98 CALM      29.94S
DECATUR        CLEAR     69  61  75 SW6       29.97S
EFFINGHAM      PTCLDY    69  59  71 CALM      30.00S
FLORA          PTCLDY    65  63  91 SW3       29.99S
GALESBURG      CLEAR     69  67  96 S6        29.93S
JACKSONVILLE   CLEAR     71  67  87 S3        29.95F
LACON          CLEAR     70  66  89 CALM      29.92S
LAWRENCEVILLE  PTCLDY    65  63  93 CALM      29.99S
LITCHFIELD     CLEAR     67  63  86 S5        29.98S
$$


CITY           SKY/WX    TMP DP  RH WIND       PRES   REMARKS
LINCOLN        CLEAR     70  64  82 S3        29.95S
MACOMB         CLEAR     69  68  96 SW5       29.96S
MATTOON        PTCLDY    70  60  70 S6        29.97S
MT CARMEL AP   PTCLDY    64  63  94 CALM      29.99S
OLNEY-NOBLE AP PTCLDY    63  63 100 CALM      29.99S
PARIS          MOCLDY    63  61  93 SW5       29.99R
PEORIA         CLEAR     72  67  84 SW8       29.93F
PONTIAC        CLEAR     69  67  91 SW6       29.94S
RANTOUL        CLEAR     68  64  85 SW6       29.96S
ROBINSON       MOCLDY    64  63  96 CALM      30.00R
SPRINGFIELD    CLEAR     72  64  76 S8        29.96F
TAYLORVILLE    CLEAR     66  61  82 S6        29.97S
$$

...REGIONAL REPORTS...


CITY           SKY/WX    TMP DP  RH WIND       PRES   REMARKS
CHICAGO O`HARE PTCLDY    73  65  75 W9        29.88F
KANKAKEE       CLEAR     67  64  90 CALM      29.93S
MOLINE         CLEAR     74  70  87 SW8       29.89F
MOUNT STERLING NOT AVBL
MOUNT VERNON   PTCLDY    64  61  88 CALM      30.00S
PITTSFIELD     CLEAR     70  68  93 CALM      29.96F
QUINCY         PTCLDY    69  65  86 S6        29.94F
ROCKFORD       CLEAR     68  64  87 S3        29.90F
$$


CITY           SKY/WX    TMP DP  RH WIND       PRES   REMARKS
BURLINGTON     CLEAR     70  69  97 S7        29.92F
CEDAR RAPIDS   CLEAR     70  70 100 SW5       29.88F
DES MOINES     PTCLDY    74  65  73 SW9       29.89F
KIRKSVILLE     PTCLDY    67  62  84 S8        29.96R
OTTUMWA        CLEAR     69  67  93 W7        29.89F
ST LOUIS       PTCLDY    80  71  74 S5        29.97F HX  84
$$


CITY           SKY/WX    TMP DP  RH WIND       PRES   REMARKS
TERRE HAUTE    MOCLDY    63  60  90 CALM      29.98S
EVANSVILLE     CLEAR     67  63  87 CALM      30.00F
INDIANAPOLIS   MOCLDY    66  59  78 SW8       29.97S
LAFAYETTE      PTCLDY    65  63  93 W3        29.95S
MADISON        PTCLDY    76  68  76 VRB7      29.84F
MILWAUKEE      PTCLDY    72  65  78 SW9       29.85F
$$




USA.gov is the U.S. government's official web portal to all federal, state and local government web resources and services.